Orbital elements:
2001 WO15                                                Earth MOID = 0.0097 AU
Epoch 2019 Apr. 27.0 TT = JDT 2458600.5                 MPC
M  75.92068              (2000.0)            P               Q
n   0.40651691     Peri.  315.72727     +0.92397653     -0.36226411
a   1.8047497      Node    65.87662     +0.37748079     +0.81233485
e   0.4942130      Incl.    7.72031     +0.06144609     +0.45703042
P   2.42           H   22.7           G   0.15           U   2
Residuals in seconds of arc
011124 704  0.1+  0.3-    181208 T05  0.1+  0.5-    181209 595  0.1-  0.1+
011124 704  0.0   0.1+    181208 T05  0.9-  0.3+    181209 157  0.0   0.6+
011124 704  0.5-  0.8-    181208 T05  0.0   0.3+    181209 595  0.2-  0.3-
011124 704  0.3-  0.5+    181208 T05  0.2-  0.5+    181209 H36  0.2+  0.2-
011124 704  0.4+  0.1+    181208 033  0.1-  0.0     181209 H36  0.4+  0.3+
011125 557  0.3+  0.0     181208 033  0.4+  0.1-    181209 H36  0.1-  0.2+
011125 557  0.2-  0.2+    181208 033  0.3+  0.0     181209 H36  0.3+  0.2+
011125 557  0.2-  0.3+    181208 033  0.2+  0.2-    181209 G96  0.0   0.1-
011125 557  0.1-  0.0     181208 K51  0.3-  0.1-    181209 G96  0.3-  0.3+
011125 557  0.0   0.2+    181208 K51  0.2-  0.2-    181209 G96  0.0   0.3+
011125 557  0.3-  0.1+    181208 K51  0.0   0.1-    181209 G96  0.0   0.2-
011125 557  0.6-  0.2+    181208 K88  0.3-  0.2+    181209 291  0.3-  0.0
011125 608 (0.4-  2.0+)   181208 K88  0.1-  0.2+    181209 291  0.1+  0.3+
011125 608  0.5-  0.1-    181208 K88  0.1-  0.3+    181209 291  0.0   0.2+
011125 608  0.2-  0.0     181208 K88  0.1-  0.3+    181209 Z99  0.4+  0.4+
011126 118  0.9-  0.2-    181208 K88  0.2-  0.6+    181209 Z99  1.1+  0.0
011126 118  0.5-  0.9-    181208 104  0.2+  0.4-    181209 Z99  0.3+  0.2-
011126 118  0.7+  0.3-    181208 104  0.1-  0.1+    181210 033  0.1-  0.0
011126 118  0.7+  0.5-    181208 104  0.2-  0.1+    181210 033  0.1+  0.2-
011126 704  0.5+  0.2-    181208 L01  0.0   0.1-    181210 033  0.2-  0.0
011126 704  0.9+  0.9+    181208 L01  0.1-  0.1+    181210 C95  0.0   0.1+
011126 704  1.0+  0.3+    181208 L01  0.2-  0.2+    181210 C95  0.1-  0.4-
011128 670  0.8+  0.3+    181208 L01  0.3-  0.3+    181210 I52  0.1-  0.2-
011128 670  0.2+  0.4+    181208 L01  0.3-  0.2-    181210 I52  0.1+  0.4+
011128 670  0.6-  0.0     181208 K38  0.4+  0.6-    181210 I52  0.2+  0.1+
011206 649  0.4-  0.3-    181208 L01  0.4-  0.0     181210 I52  0.1+  0.1-
011206 649  0.1-  0.0     181208 K38  0.6-  0.1+    181210 P93  0.3-  0.1-
011206 649  0.2-  0.4-    181209 K38  0.3+  0.2-    181210 P93  0.6+  0.4+
011220 644  0.8-  1.4-    181209 595  0.4+  0.1+    181210 P93  0.7-  0.2-
011220 644 (0.4-  1.9-)   181209 K63  0.1-  0.1-    181210 P93  0.4+  0.3+
011220 644 (0.1+  2.6-)   181209 K63  1.1+  1.3-    181210 587  0.1+  0.4-
011220 644 (0.7+  2.1-)   181209 595  0.6+  0.2-    181210 587  0.2+  0.3-
020109 696 (0.6-  1.6+)   181209 K63  0.1-  0.1-    181210 587  0.1-  0.4-
020109 696  0.5-  0.0     181209 157  0.1+  0.3+
020109 696  0.9+  0.4+    181209 157  0.2-  0.2+

Ephemeris:
2001 WO15                a,e,i = 1.80, 0.49, 8                   q = 0.9128
Date    TT    R. A. (2000) Decl.     Delta      r     Elong.  Phase     V
2018 11 11    13 38 28.4 -54 27 56   0.05913 0.9461    40.6   137.0    22.9
...
2018 11 26    08 56 14.5 +18 39 13   0.05699 1.0099   112.2    64.8    18.8
...
2018 12 04    08 02 20.1 +34 37 15   0.09461 1.0539   134.3    42.0    19.3
...
2018 12 10    07 36 21.7 +39 28 29   0.1269  1.0903   144.2    31.9    19.8
2018 12 11    07 32 42.1 +40 00 28   0.1326  1.0966   145.5    30.5    19.8
2018 12 12    07 29 11.6 +40 29 03   0.1383  1.1030   146.8    29.2    19.9
...
2018 12 18    07 10 53.3 +42 24 59   0.1740  1.1423   153.4    22.7    20.3
...
2018 12 26    06 52 27.8 +43 22 26   0.2262  1.1971   158.7    17.4    20.8
...
2019 01 10    06 32 38.6 +42 41 53   0.3414  1.3042   156.8    17.2    21.9

A. U. Tomatic                (C) Copyright 2018 MPC           M.P.E.C. 2018-X69



More information about the Iaude mailing list